When you browse on this site, cookies collect data to enhance your experience and personalize the content and advertising you see.
Visit our Privacy Policy to learn more. By continuing to use the site, you agree to this use of cookies and data.
  • en Suisse
  • Liste des pays
  • À 7 jours
  • Température de l'eau
  • Carte satellitaire
  • Carte météo
  • Widgets météo
  • user-avatar
    Se connecter

    Météo par heure à Wexford

    Ce jour, 19 Décembre, Mercredi

    Heure Température Précipitation Vent Pression Humidité
    00:00 +3°C° 0 mm 5 m/s 747 mmHg 90%
    01:00 +3°C° 0 mm 6 m/s 747 mmHg 90%
    02:00 +3°C° 0 mm 6 m/s 747 mmHg 89%
    03:00 +3°C° 0 mm 6 m/s 748 mmHg 88%
    04:00 +3°C° 0 mm 7 m/s 748 mmHg 87%
    05:00 +4°C° 0 mm 7 m/s 748 mmHg 87%
    06:00 +4°C° 0 mm 7 m/s 748 mmHg 86%
    07:00 +4°C° 0 mm 8 m/s 748 mmHg 86%
    08:00 +4°C° 0 mm 8 m/s 748 mmHg 86%
    09:00 +4°C° 0 mm 8 m/s 748 mmHg 86%
    10:00 +5°C° 0.3 mm 9 m/s 748 mmHg 85%
    11:00 +6°C° 0.3 mm 9 m/s 748 mmHg 83%
    12:00 +6°C° 0.3 mm 9 m/s 748 mmHg 82%
    13:00 +6°C° 0.4 mm 9 m/s 747 mmHg 83%
    14:00 +6°C° 0.4 mm 9 m/s 747 mmHg 84%
    15:00 +6°C° 0.4 mm 9 m/s 747 mmHg 85%
    16:00 +5°C° 0.1 mm 9 m/s 747 mmHg 86%
    17:00 +5°C° 0.1 mm 9 m/s 747 mmHg 87%
    18:00 +3°C° 0.1 mm 9 m/s 747 mmHg 88%
    19:00 +3°C° 0.1 mm 9 m/s 747 mmHg 88%
    20:00 +3°C° 0.1 mm 9 m/s 747 mmHg 88%
    21:00 +3°C° 0.1 mm 10 m/s 747 mmHg 88%
    22:00 +5°C° 0.1 mm 10 m/s 748 mmHg 89%
    23:00 +5°C° 0.1 mm 10 m/s 748 mmHg 89%

    Demain, 20 Décembre, Jeudi

    Heure Température Précipitation Vent Pression Humidité
    00:00 +5°C° 0.1 mm 10 m/s 748 mmHg 90%
    01:00 +3°C° 0 mm 10 m/s 749 mmHg 90%
    02:00 +3°C° 0 mm 9 m/s 749 mmHg 90%
    03:00 +3°C° 0 mm 9 m/s 750 mmHg 91%
    04:00 +3°C° 0 mm 9 m/s 750 mmHg 90%
    05:00 +3°C° 0 mm 9 m/s 751 mmHg 89%
    06:00 +3°C° 0 mm 9 m/s 751 mmHg 89%
    07:00 +3°C° 0.1 mm 9 m/s 751 mmHg 88%
    08:00 +5°C° 0.1 mm 9 m/s 751 mmHg 87%
    09:00 +5°C° 0.1 mm 9 m/s 752 mmHg 86%
    10:00 +5°C° 0.1 mm 9 m/s 752 mmHg 85%
    11:00 +6°C° 0.1 mm 10 m/s 752 mmHg 84%
    12:00 +6°C° 0.1 mm 10 m/s 752 mmHg 82%
    13:00 +6°C° 0 mm 9 m/s 752 mmHg 82%
    14:00 +6°C° 0 mm 9 m/s 752 mmHg 83%
    15:00 +6°C° 0 mm 9 m/s 752 mmHg 83%
    16:00 +5°C° 0 mm 8 m/s 752 mmHg 85%
    17:00 +5°C° 0 mm 7 m/s 752 mmHg 86%
    18:00 +4°C° 0 mm 7 m/s 752 mmHg 88%
    19:00 +4°C° 0 mm 6 m/s 751 mmHg 89%
    20:00 +5°C° 0 mm 5 m/s 751 mmHg 89%
    21:00 +5°C° 0 mm 4 m/s 750 mmHg 89%
    22:00 +5°C° 0.6 mm 4 m/s 749 mmHg 91%
    23:00 +6°C° 0.6 mm 4 m/s 748 mmHg 93%

    Après-demain, 21 Décembre, Vendredi

    Heure Température Précipitation Vent Pression Humidité
    00:00 +6°C° 0.6 mm 4 m/s 747 mmHg 95%
    01:00 +7°C° 0.7 mm 4 m/s 746 mmHg 96%
    02:00 +7°C° 0.7 mm 4 m/s 746 mmHg 97%
    03:00 +8°C° 0.7 mm 5 m/s 745 mmHg 98%
    04:00 +8°C° 0.1 mm 7 m/s 745 mmHg 94%
    05:00 +7°C° 0.1 mm 9 m/s 745 mmHg 89%
    06:00 +7°C° 0.1 mm 11 m/s 745 mmHg 84%
    07:00 +7°C° 0 mm 11 m/s 746 mmHg 84%
    08:00 +5°C° 0 mm 12 m/s 747 mmHg 84%
    09:00 +4°C° 0 mm 12 m/s 748 mmHg 85%
    10:00 +6°C° 0 mm 11 m/s 748 mmHg 83%
    11:00 +6°C° 0 mm 11 m/s 749 mmHg 81%
    12:00 +7°C° 0 mm 10 m/s 750 mmHg 80%
    13:00 +7°C° 0.1 mm 9 m/s 750 mmHg 82%
    14:00 +7°C° 0.1 mm 9 m/s 750 mmHg 84%
    15:00 +6°C° 0.1 mm 8 m/s 750 mmHg 86%
    16:00 +7°C° 0.2 mm 8 m/s 750 mmHg 88%
    17:00 +7°C° 0.2 mm 8 m/s 750 mmHg 91%
    18:00 +7°C° 0.2 mm 8 m/s 749 mmHg 94%
    19:00 +7°C° 0.2 mm 9 m/s 750 mmHg 91%
    20:00 +6°C° 0.2 mm 10 m/s 751 mmHg 88%
    21:00 +6°C° 0.2 mm 11 m/s 751 mmHg 86%
    22:00 +4°C° 0 mm 11 m/s 753 mmHg 87%
    23:00 +3°C° 0 mm 10 m/s 754 mmHg 88%

    22 Décembre, Samedi

    Heure Température Précipitation Vent Pression Humidité
    00:00 +3°C° 0 mm 9 m/s 755 mmHg 89%
    01:00 +3°C° 0 mm 9 m/s 755 mmHg 90%
    02:00 +4°C° 0 mm 8 m/s 756 mmHg 91%
    03:00 +4°C° 0 mm 8 m/s 757 mmHg 92%
    04:00 +4°C° 0 mm 7 m/s 757 mmHg 93%
    05:00 +3°C° 0 mm 7 m/s 757 mmHg 93%
    06:00 +3°C° 0 mm 6 m/s 758 mmHg 94%
    07:00 +3°C° 0 mm 6 m/s 758 mmHg 94%
    08:00 +3°C° 0 mm 5 m/s 759 mmHg 94%
    09:00 +2°C° 0 mm 5 m/s 760 mmHg 94%
    10:00 +5°C° 0 mm 5 m/s 760 mmHg 91%
    11:00 +6°C° 0 mm 5 m/s 761 mmHg 89%
    12:00 +7°C° 0 mm 6 m/s 761 mmHg 86%
    13:00 +7°C° 0 mm 6 m/s 761 mmHg 87%
    14:00 +7°C° 0 mm 5 m/s 762 mmHg 88%
    15:00 +6°C° 0 mm 5 m/s 762 mmHg 88%
    16:00 +6°C° 0 mm 5 m/s 762 mmHg 90%
    17:00 +5°C° 0 mm 4 m/s 763 mmHg 91%
    18:00 +5°C° 0 mm 4 m/s 763 mmHg 92%
    19:00 +5°C° 0 mm 4 m/s 763 mmHg 92%
    20:00 +5°C° 0 mm 4 m/s 763 mmHg 92%
    21:00 +5°C° 0 mm 3 m/s 764 mmHg 92%
    22:00 +5°C° 0 mm 3 m/s 764 mmHg 92%
    23:00 +5°C° 0 mm 3 m/s 764 mmHg 93%

    23 Décembre, Dimanche

    Heure Température Précipitation Vent Pression Humidité
    00:00 +5°C° 0 mm 3 m/s 764 mmHg 93%
    01:00 +5°C° 0 mm 3 m/s 764 mmHg 94%
    02:00 +5°C° 0 mm 3 m/s 764 mmHg 94%
    03:00 +5°C° 0 mm 3 m/s 764 mmHg 95%
    04:00 +5°C° 0 mm 3 m/s 764 mmHg 95%
    05:00 +5°C° 0 mm 3 m/s 764 mmHg 96%
    06:00 +6°C° 0 mm 2 m/s 763 mmHg 96%
    07:00 +7°C° 0 mm 3 m/s 764 mmHg 96%
    08:00 +7°C° 0 mm 3 m/s 764 mmHg 96%
    09:00 +6°C° 0 mm 4 m/s 764 mmHg 96%
    10:00 +6°C° 1.1 mm 4 m/s 764 mmHg 96%
    11:00 +7°C° 1.1 mm 4 m/s 764 mmHg 96%
    12:00 +7°C° 1.1 mm 5 m/s 764 mmHg 96%
    13:00 +7°C° 1.4 mm 5 m/s 764 mmHg 96%
    14:00 +7°C° 1.4 mm 6 m/s 763 mmHg 95%
    15:00 +5°C° 1.4 mm 7 m/s 763 mmHg 94%
    16:00 +6°C° 0.2 mm 7 m/s 763 mmHg 94%
    17:00 +6°C° 0.2 mm 7 m/s 763 mmHg 94%
    18:00 +6°C° 0.2 mm 7 m/s 764 mmHg 93%
    19:00 +6°C° 0.1 mm 7 m/s 764 mmHg 93%
    20:00 +7°C° 0.1 mm 6 m/s 764 mmHg 94%
    21:00 +7°C° 0.1 mm 5 m/s 765 mmHg 94%
    22:00 +7°C° 0 mm 5 m/s 765 mmHg 95%
    23:00 +7°C° 0 mm 4 m/s 765 mmHg 96%

    24 Décembre, Lundi

    Heure Température Précipitation Vent Pression Humidité
    00:00 +8°C° 0 mm 4 m/s 765 mmHg 97%
    01:00 +8°C° 0.1 mm 4 m/s 765 mmHg 97%
    02:00 +8°C° 0.1 mm 4 m/s 765 mmHg 98%
    03:00 +10°C° 0.1 mm 4 m/s 765 mmHg 98%
    04:00 +10°C° 0.2 mm 4 m/s 765 mmHg 98%
    05:00 +10°C° 0.2 mm 4 m/s 765 mmHg 98%
    06:00 +11°C° 0.2 mm 4 m/s 765 mmHg 98%
    07:00 +11°C° 0 mm 4 m/s 766 mmHg 98%
    08:00 +10°C° 0 mm 4 m/s 766 mmHg 98%
    09:00 +10°C° 0 mm 4 m/s 766 mmHg 98%
    10:00 +11°C° 0 mm 4 m/s 766 mmHg 97%
    11:00 +11°C° 0 mm 4 m/s 767 mmHg 96%
    12:00 +12°C° 0 mm 4 m/s 767 mmHg 96%
    13:00 +12°C° 0 mm 4 m/s 767 mmHg 95%
    14:00 +12°C° 0 mm 4 m/s 767 mmHg 95%
    15:00 +12°C° 0 mm 4 m/s 767 mmHg 95%
    16:00 +11°C° 0 mm 4 m/s 767 mmHg 95%
    17:00 +10°C° 0 mm 4 m/s 767 mmHg 96%
    18:00 +10°C° 0 mm 4 m/s 767 mmHg 97%
    19:00 +10°C° 0.1 mm 4 m/s 767 mmHg 97%
    20:00 +10°C° 0.1 mm 4 m/s 767 mmHg 97%
    21:00 +10°C° 0.1 mm 4 m/s 767 mmHg 97%
    22:00 +10°C° 0 mm 4 m/s 767 mmHg 97%
    23:00 +10°C° 0 mm 4 m/s 767 mmHg 97%
    Voir plus